Regional Weather Roundup
Issued by NWS State College, PA

Home | Current Version | Previous Version | Text Only | Print | Product List | Glossary On
Versions: 1 2 3 4 5 6 7 8 9 10 11 12 13 14 15 16 17 18 19 20 21 22 23 24 25 26 27 28 29 30 31 32 33 34 35 36 37 38 39 40 41 42 43 44 45 46 47 48 49 50
000
ASUS41 KCTP 282303
RWRCTP

REGIONAL WEATHER ROUNDUP
NATIONAL WEATHER SERVICE STATE COLLEGE PA
700 PM EDT THU AUG 28 2014

Note: "fair" indicates few or no clouds below 12,000 feet with no
significant weather and/or obstructions to visibility.

* = STATION THAT DOES NOT REPORT PRECIPITATION /E.G. RAIN...SNOW...ETC/
    THUNDER OR FOG.

PAZ002>004-007>009-013>016-020>023-029>032-290000-
WESTERN PENNSYLVANIA

CITY           SKY/WX    TMP DP  RH WIND       PRES   REMARKS
ERIE           SUNNY     68  50  52 W5        30.11S
MEADVILLE      SUNNY     65  49  56 N6        30.12S
FRANKLIN*      SUNNY     64  48  55 N5        30.13R
NEW CASTLE     FAIR      69  53  56 CALM      30.11F
BEAVER COUNTY  SUNNY     70  50  49 N7        30.10S
BUTLER*        SUNNY     70  50  49 NW3       30.12S
PITTSBURGH INT MOSUNNY   72  51  47 NW9       30.09S
PITTSBURGH     SUNNY     71  49  45 VRB7      30.08S
INDIANA*       CLEAR     70  52  52 NW5       30.12S
LATROBE        PTCLDY    72  54  53 NW9       30.09S
WASHINGTON CO* SUNNY     70  54  56 CALM      30.10F
$$

PAZ004>006-010>012-017>019-024>028-033>037-041-042-045-046-049>053-290000-
CENTRAL PENNSYLVANIA

CITY           SKY/WX    TMP DP  RH WIND       PRES   REMARKS
BRADFORD       CLEAR     62  46  55 NW8       30.11S
DUBOIS         CLEAR     66  49  54 NW7       30.09R
CLEARFIELD     CLEAR     69  49  48 NW9       30.08R
JOHNSTOWN      CLEAR     66  48  52 NW7       30.10S
ALTOONA        CLEAR     70  51  51 NW6       30.07S
STATE COLLEGE  CLEAR     72  50  46 NW8       30.04F
WILLIAMSPORT   CLEAR     72  48  42 N12       30.02R
SELINSGROVE    MOCLDY    73  53  49 N7        30.02R
FT INDIANTOWN  CLEAR     74  52  46 VRB5      30.01S
CAPITAL CITY   CLEAR     73  51  46 W7        30.01S
HARRISBURG     PTCLDY    75  52  44 NW8       30.00S
YORK           CLEAR     73  52  47 N9        30.01R
$$

PAZ038>040-043-044-047-048-054-055-060>062-067>071-290000-
EASTERN PENNSYLVANIA

CITY           SKY/WX    TMP DP  RH WIND       PRES   REMARKS
SCRANTON       MOCLDY    69  47  45 N9        30.03R
MOUNT POCONO   PTCLDY    64  47  53 NW10G21   30.04R
ALLENTOWN      CLEAR     73  51  46 N7        29.99R
QUAKERTOWN*    CLEAR     73  52  46 MISG      30.00R
READING        CLEAR     74  51  44 NW9       29.99R
LANCASTER      CLEAR     73  50  44 NW9       30.00S
COATESVILLE    CLEAR     72  54  53 N6        30.02R
POTTSTOWN      CLEAR     73  51  46 NW6       30.01R
BLUE BELL      CLEAR     75  50  41 NW7       29.98R
DOYLESTOWN     CLEAR     73  49  42 NW8       29.98R
WILLOW GROVE   NOT AVBL
NORTH PHILA    CLEAR     77  47  34 N13       29.98R
PHILADELPHIA   PTCLDY    78  50  37 NW13      29.98R
$$



USA.gov is the U.S. government's official web portal to all federal, state and local government web resources and services.